Weather History for KJOT - May, 2013

Change the Weather History Date:

Thursday, May 2, 2013

  Actual Average (KLOT) Record (KLOT)
Temperature  
Mean Temperature 52 °F 56 °F  
Max Temperature 61 °F 67 °F 83 °F (2001)
Min Temperature 44 °F 45 °F 32 °F (2005)
Degree Days  
Heating Degree Days 12 9  
Month to date heating degree days 19  
Since 1 July heating degree days 6013  
Cooling Degree Days 0 0  
Month to date cooling degree days 0  
Year to date cooling degree days 5  
Growing Degree Days 2 (Base 50)    
Moisture  
Dew Point 44 °F    
Average Humidity 73    
Maximum Humidity 81    
Minimum Humidity 62    
Precipitation  
Precipitation 0.02 in 0.15 in 0.62 in (2008)
Month to date precipitation 0.29  
Year to date precipitation 10.73  
Snow  
Snow 0.00 in 0.00 in - ()
Month to date snowfall 0.0  
Since 1 July snowfall 32.3  
Snow Depth -    
Sea Level Pressure  
Sea Level Pressure 30.15 in    
Wind  
Wind Speed 7 mph (NNE)    
Max Wind Speed 18 mph    
Max Gust Speed 29 mph    
Visibility 10 miles    
Events Rain , Thunderstorm    
T = Trace of Precipitation, MM = Missing Value Source: NWS Daily Summary

Daily Weather History Graph

Daily Weather History Graph

Search for Another Location

Airport or City:

Trip Planner

Search our weather history database for the weather conditions in past years. The results will help you decide how hot, cold, wet, or windy it might be!

Date:

Astronomy

May. 02, 2013 Rise Set
Actual Time 5:48 AM CDT 7:51 PM CDT
Civil Twilight 5:17 AM CDT 8:22 PM CDT
Nautical Twilight 4:40 AM CDT 8:59 PM CDT
Astronomical Twilight 4:00 AM CDT 9:40 PM CDT
Moon 1:40 AM CDT (5/2) 12:35 PM CDT (5/2)
Length of Visible Light 15h 04m
Length of Day
14h 03m
Waning Gibbous, 47% of the Moon is Illuminated
May 2
Waning Gibbous
May 9
New
May 17
First Quarter
May 24
Full
May 31
Last Quarter

Hourly Weather History & Observations

Time (CDT) Temp. Windchill Dew Point Humidity Pressure Visibility Wind Dir Wind Speed Gust Speed Precip Events Conditions
12:15 AM 61.0 °F - 51.8 °F 72% 30.13 in 10.0 mi Calm Calm - N/A   Clear
12:35 AM 59.9 °F - 52.0 °F 75% 30.13 in 10.0 mi Calm Calm - N/A   Clear
12:55 AM 57.7 °F - 51.6 °F 80% 30.13 in 10.0 mi Calm Calm - N/A   Clear
1:15 AM 58.6 °F - 52.0 °F 79% 30.13 in 10.0 mi Calm Calm - N/A   Clear
1:35 AM 57.7 °F - 52.0 °F 81% 30.12 in 10.0 mi Calm Calm - N/A   Clear
1:55 AM 59.0 °F - 51.8 °F 77% 30.11 in 10.0 mi Calm Calm - N/A   Clear
2:15 AM 58.1 °F - 51.4 °F 78% 30.11 in 10.0 mi Calm Calm - N/A   Clear
2:35 AM 59.2 °F - 52.3 °F 78% 30.11 in 10.0 mi Calm Calm - N/A   Clear
2:55 AM 61.9 °F - 51.8 °F 69% 30.11 in 10.0 mi Calm Calm - N/A   Clear
3:15 AM 61.0 °F - 52.0 °F 72% 30.11 in 10.0 mi Calm Calm - N/A   Clear
3:35 AM 59.7 °F - 51.6 °F 75% 30.13 in 10.0 mi NE 15.0 mph 18.4 mph N/A   Clear
3:55 AM 55.0 °F - 47.3 °F 75% 30.14 in 10.0 mi NE 11.5 mph 16.1 mph N/A   Clear
4:15 AM 52.5 °F - 45.5 °F 77% 30.14 in 10.0 mi NE 13.8 mph 17.3 mph N/A   Clear
4:35 AM 51.4 °F - 44.2 °F 76% 30.14 in 10.0 mi NE 11.5 mph 17.3 mph N/A   Scattered Clouds
4:55 AM 50.4 °F - 43.7 °F 78% 30.15 in 10.0 mi NE 9.2 mph 16.1 mph N/A   Mostly Cloudy
5:15 AM 49.5 °F - 43.0 °F 78% 30.15 in 10.0 mi NNE 9.2 mph - N/A   Scattered Clouds
5:35 AM 48.6 °F - 42.3 °F 79% 30.15 in 10.0 mi NE 8.1 mph - N/A   Scattered Clouds
5:55 AM 48.2 °F - 42.1 °F 79% 30.16 in 10.0 mi NNE 8.1 mph - N/A   Clear
6:15 AM 47.8 °F - 41.5 °F 79% 30.16 in 10.0 mi NE 11.5 mph 16.1 mph N/A   Clear
6:35 AM 47.8 °F - 41.2 °F 78% 30.17 in 10.0 mi NE 11.5 mph - N/A   Clear
6:55 AM 48.2 °F - 41.2 °F 77% 30.17 in 10.0 mi NE 12.7 mph - N/A   Clear
7:15 AM 48.6 °F - 41.2 °F 76% 30.18 in 10.0 mi NE 11.5 mph - N/A   Clear
7:35 AM 49.1 °F - 41.5 °F 75% 30.18 in 10.0 mi ENE 11.5 mph - N/A   Clear
7:55 AM 50.0 °F - 41.5 °F 73% 30.19 in 10.0 mi NE 9.2 mph - N/A   Clear
8:15 AM 50.0 °F - 41.4 °F 72% 30.19 in 10.0 mi NNE 10.4 mph - N/A   Scattered Clouds
8:35 AM 50.5 °F - 42.1 °F 73% 30.19 in 10.0 mi NNE 10.4 mph - N/A   Scattered Clouds
8:55 AM 50.9 °F - 42.3 °F 72% 30.19 in 10.0 mi NE 10.4 mph - N/A   Scattered Clouds
9:15 AM 52.2 °F - 43.0 °F 71% 30.19 in 10.0 mi NNE 9.2 mph - N/A   Scattered Clouds
9:35 AM 51.8 °F - 43.0 °F 72% 30.19 in 10.0 mi NE 11.5 mph - N/A   Scattered Clouds
9:55 AM 52.3 °F - 43.0 °F 70% 30.19 in 10.0 mi ENE 8.1 mph - N/A   Scattered Clouds
10:15 AM 55.8 °F - 45.3 °F 68% 30.18 in 10.0 mi NE 6.9 mph - N/A   Scattered Clouds
10:35 AM 55.9 °F - 45.5 °F 68% 30.18 in 10.0 mi NNE 8.1 mph - N/A   Scattered Clouds
10:55 AM 56.3 °F - 44.6 °F 65% 30.18 in 10.0 mi NNE 9.2 mph - N/A   Scattered Clouds
11:15 AM 57.0 °F - 44.8 °F 64% 30.22 in 10.0 mi NW 8.1 mph - N/A   Scattered Clouds
11:35 AM 57.6 °F - 45.1 °F 63% 30.18 in 10.0 mi NNE 11.5 mph 17.3 mph N/A Thunderstorm Thunderstorm
11:55 AM 56.3 °F - 44.1 °F 64% 30.20 in 10.0 mi North 8.1 mph - N/A   Clear
12:15 PM 56.5 °F - 44.8 °F 65% 30.18 in 10.0 mi NE 10.4 mph - N/A   Clear
12:35 PM 54.7 °F - 46.8 °F 75% 30.15 in 7.0 mi NNE 18.4 mph 21.9 mph N/A Rain Light Rain
12:55 PM 53.6 °F - 46.6 °F 77% 30.18 in 10.0 mi East 10.4 mph - N/A   Mostly Cloudy
1:15 PM 53.1 °F - 45.1 °F 74% 30.19 in 10.0 mi North 5.8 mph - N/A Rain Light Rain
1:35 PM 53.8 °F - 46.0 °F 75% 30.16 in 10.0 mi North 9.2 mph - N/A   Scattered Clouds
1:55 PM 54.7 °F - 46.0 °F 73% 30.16 in 10.0 mi NNE 10.4 mph - N/A   Clear
2:15 PM 57.6 °F - 46.6 °F 67% 30.16 in 10.0 mi NE 9.2 mph 12.7 mph N/A   Clear
2:35 PM 58.1 °F - 46.2 °F 65% 30.14 in 10.0 mi NNE 13.8 mph - N/A   Clear
2:55 PM 57.7 °F - 46.6 °F 66% 30.14 in 10.0 mi NE 15.0 mph - N/A   Clear
3:15 PM 59.2 °F - 46.4 °F 63% 30.13 in 10.0 mi NE 12.7 mph - N/A   Clear
3:35 PM 58.1 °F - 45.3 °F 62% 30.13 in 10.0 mi NE 10.4 mph 17.3 mph N/A   Scattered Clouds
3:55 PM 58.5 °F - 45.7 °F 62% 30.12 in 10.0 mi NE 12.7 mph 18.4 mph N/A   Scattered Clouds
4:15 PM 58.3 °F - 45.3 °F 62% 30.11 in 10.0 mi NE 13.8 mph 18.4 mph N/A   Scattered Clouds
4:35 PM 56.3 °F - 44.6 °F 65% 30.14 in 10.0 mi North 11.5 mph 17.3 mph N/A Thunderstorm Scattered Clouds
4:55 PM 54.9 °F - 44.1 °F 67% 30.14 in 10.0 mi North 9.2 mph - N/A   Mostly Cloudy
5:15 PM 54.0 °F - 43.9 °F 69% 30.14 in 10.0 mi NNE 17.3 mph 20.7 mph N/A Rain , Thunderstorm Light Thunderstorms and Rain
5:35 PM 51.8 °F - 44.8 °F 77% 30.14 in 10.0 mi North 12.7 mph 20.7 mph N/A Rain Light Rain
5:55 PM 50.0 °F - 44.2 °F 81% 30.13 in 10.0 mi NNE 11.5 mph 16.1 mph N/A Rain , Thunderstorm Rain
6:15 PM 50.0 °F - 43.9 °F 79% 30.13 in 10.0 mi NNE 12.7 mph 17.3 mph N/A   Mostly Cloudy
6:35 PM 49.8 °F - 42.1 °F 75% 30.13 in 10.0 mi NNE 13.8 mph 21.9 mph N/A Thunderstorm Mostly Cloudy
6:55 PM 49.3 °F - 41.5 °F 75% 30.13 in 10.0 mi NE 15.0 mph 24.2 mph N/A   Scattered Clouds
7:15 PM 49.1 °F - 41.2 °F 74% 30.17 in 10.0 mi North 8.1 mph - N/A Rain , Thunderstorm Light Thunderstorms and Rain
7:35 PM 48.2 °F - 41.9 °F 79% 30.16 in 10.0 mi NNE 11.5 mph 17.3 mph 0.01 in Thunderstorm Mostly Cloudy
7:55 PM 48.4 °F - 41.5 °F 77% 30.15 in 10.0 mi NNE 12.7 mph 17.3 mph 0.01 in Thunderstorm Mostly Cloudy
8:15 PM 48.6 °F - 40.5 °F 74% 30.14 in 10.0 mi NNE 12.7 mph 19.6 mph N/A   Scattered Clouds
8:35 PM 48.2 °F - 39.4 °F 72% 30.14 in 10.0 mi NNE 18.4 mph 28.8 mph N/A   Mostly Cloudy
8:55 PM 47.8 °F - 39.2 °F 72% 30.14 in 10.0 mi NNE 16.1 mph 27.6 mph N/A Thunderstorm Scattered Clouds
9:15 PM 47.8 °F - 39.2 °F 72% 30.14 in 10.0 mi NE 13.8 mph 19.6 mph N/A   Mostly Cloudy
9:35 PM 47.7 °F - 38.7 °F 71% 30.15 in 10.0 mi NNE 17.3 mph 25.3 mph N/A   Overcast
9:55 PM 46.0 °F 39.3 °F 39.4 °F 78% 30.14 in 10.0 mi NE 16.1 mph - 0.01 in Rain , Thunderstorm Light Thunderstorms and Rain
10:15 PM 45.7 °F 40.2 °F 38.3 °F 75% 30.15 in 10.0 mi NNE 11.5 mph 24.2 mph N/A   Mostly Cloudy
10:35 PM 45.5 °F 38.3 °F 38.5 °F 76% 30.14 in 10.0 mi NNE 17.3 mph 24.2 mph N/A   Mostly Cloudy
10:55 PM 45.5 °F 41.8 °F 38.5 °F 76% 30.17 in 10.0 mi NNE 6.9 mph - N/A   Mostly Cloudy
11:15 PM 45.1 °F 39.9 °F 38.5 °F 77% 30.15 in 10.0 mi NNE 10.4 mph - N/A   Mostly Cloudy
11:35 PM 44.8 °F 38.7 °F 38.3 °F 78% 30.13 in 10.0 mi NNE 12.7 mph 17.3 mph N/A   Mostly Cloudy
11:55 PM 44.6 °F 38.4 °F 38.5 °F 79% 30.12 in 10.0 mi NNE 12.7 mph - N/A   Overcast